Back to catalog

DMSP 5D-2 F11 DEB

AliveSSO
NORAD 28300·DEBRIS·🇺🇸 United States

Launched Nov 28, 1991 from Vandenberg Space Force Base

Loading…

Next Passes (next 24 hours)

TLE

FreshSource: Space-Track

Epoch: Sep 14, 2026, 02:52 UTC

1 28300U 91082M   26257.11983227  .00002048  00000-0  62444-3 0  9995
2 28300  98.5280 309.6408 0006662 358.1121  30.0692 14.43020914165200

Track DMSP 5D-2 F11 DEB in real time with AllMySat

Download on the App Store